This is the latest recevied weather packets stored in our database for station/object XE2OR-10. If no packets are shown the sender has not sent any weather packets the latest 10 day(s).
| Time | Temp. | Humidity | Pressure | Rain* | Wind** | Luminosity | Snow |
|---|---|---|---|---|---|---|---|
| 1778110129 | 32.78° C | 70% | 1012.8 hPa | 0 mm | - | 265 W/m² | - |
| 1778109833 | 32.22° C | 69% | 1012.9 hPa | 0 mm | - | 308 W/m² | - |
| 1778109529 | 32.22° C | 70% | 1012.9 hPa | 0 mm | - | 120 W/m² | - |
| 1778109233 | 32.22° C | 69% | 1012.6 hPa | 0 mm | - | 297 W/m² | - |
| 1778108929 | 32.22° C | 70% | 1012.3 hPa | 0 mm | - | 324 W/m² | - |
| 1778108629 | 32.22° C | 69% | 1012.4 hPa | 0 mm | - | 347 W/m² | - |
| 1778108329 | 32.22° C | 68% | 1012.4 hPa | 0 mm | - | 374 W/m² | - |
| 1778108032 | 32.22° C | 70% | 1012.3 hPa | 0 mm | - | 346 W/m² | - |
| 1778107728 | 32.22° C | 70% | 1012.4 hPa | 0 mm | - | 402 W/m² | - |
| 1778107432 | 32.78° C | 69% | 1012.4 hPa | 0 mm | - | 511 W/m² | - |
| 1778107129 | 32.78° C | 69% | 1012.4 hPa | 0 mm | - | 536 W/m² | - |
| 1778106829 | 32.78° C | 70% | 1012.4 hPa | 0 mm | - | 338 W/m² | - |
| 1778106529 | 32.22° C | 70% | 1012.4 hPa | 0 mm | - | 543 W/m² | - |
| 1778106232 | 31.67° C | 70% | 1012.3 hPa | 0 mm | - | 583 W/m² | - |
| 1778105929 | 31.11° C | 72% | 1012.3 hPa | 0 mm | - | 129 W/m² | - |
| 1778105633 | 31.67° C | 72% | 1012.5 hPa | 0 mm | - | 74 W/m² | - |
| 1778105329 | 31.67° C | 72% | 1012.3 hPa | 0 mm | - | 58 W/m² | - |
| 1778105029 | 32.78° C | 69% | 1012.1 hPa | 0 mm | - | 505 W/m² | - |
| 1778104729 | 33.33° C | 68% | 1011.9 hPa | 0 mm | - | 493 W/m² | - |
| 1778104433 | 32.78° C | 69% | 1012.1 hPa | 0 mm | - | 629 W/m² | - |
| 1778104129 | 33.33° C | 69% | 1012.1 hPa | 0 mm | - | 658 W/m² | - |
| 1778103832 | 32.78° C | 69% | 1012 hPa | 0 mm | - | 647 W/m² | - |
| 1778103528 | 32.78° C | 70% | 1012.3 hPa | 0 mm | - | 278 W/m² | - |
| 1778103229 | 33.33° C | 69% | 1012.2 hPa | 0 mm | - | 659 W/m² | - |
| 1778102929 | 32.78° C | 70% | 1012.1 hPa | 0 mm | - | 664 W/m² | - |
* Rain latest hour (hover to see other rain measurements)
** Current wind speed in m/s (hover to see current wind gust speed)